TimeEET,TemperatureF,Dew PointF,Humidity,Sea Level PressureIn,VisibilityMPH,Wind Direction,Wind SpeedMPH,Gust SpeedMPH,PrecipitationIn,Events,Conditions,WindDirDegrees,DateUTC
12:20 AM,-7.6,-9.4,92,30.36,-9999.0,SSE,3.5,-,N/A,,Mist,150,2013-01-02 22:20:00
12:50 AM,-9.4,-13.0,84,30.36,2.8,Variable,1.2,-,N/A,,Mist,0,2013-01-02 22:50:00
1:20 AM,-11.2,-14.8,84,30.36,-9999.0,Calm,Calm,-,N/A,,Mist,0,2013-01-02 23:20:00
1:50 AM,-11.2,-13.0,92,30.36,-9999.0,Calm,Calm,-,N/A,,Mist,0,2013-01-02 23:50:00
2:00 AM,-11,-11,100,,3,Calm,Calm,,,,Mist,,2013-01-03 00:00:00
2:20 AM,-11.2,-14.8,84,30.36,-9999.0,Calm,Calm,-,N/A,,Mist,0,2013-01-03 00:20:00
2:50 AM,-9.4,-11.2,92,30.36,2.5,Calm,Calm,-,N/A,,Mist,0,2013-01-03 00:50:00
3:20 AM,-9.4,-13.0,84,30.36,-9999.0,West,2.3,-,N/A,,Mist,270,2013-01-03 01:20:00
3:50 AM,-9.4,-13.0,84,30.36,2.5,WSW,2.3,-,N/A,,Mist,240,2013-01-03 01:50:00
4:20 AM,-11.2,-14.8,84,30.36,2.5,Variable,1.2,-,N/A,,Mist,0,2013-01-03 02:20:00
4:50 AM,-11.2,-13.0,92,30.36,2.5,East,2.3,-,N/A,,Mist,90,2013-01-03 02:50:00
5:20 AM,-11.2,-13.0,92,30.36,2.5,Calm,Calm,-,N/A,,Mist,0,2013-01-03 03:20:00
5:50 AM,-14.8,-16.6,92,30.36,2.5,WNW,2.3,-,N/A,,Mist,300,2013-01-03 03:50:00
6:20 AM,-13.0,-16.6,84,30.36,2.5,Calm,Calm,-,N/A,,Mist,0,2013-01-03 04:20:00
6:50 AM,-13.0,-16.6,84,30.36,-9999.0,SSW,1.2,-,N/A,,Mist,200,2013-01-03 04:50:00
7:20 AM,-9.4,-13.0,84,30.36,-9999.0,Calm,Calm,-,N/A,,Mist,0,2013-01-03 05:20:00
7:50 AM,-13.0,-16.6,84,30.36,-9999.0,North,2.3,-,N/A,,Mist,360,2013-01-03 05:50:00
8:00 AM,-13,-13,100,,2,North,2.3,,,,Mist,0,2013-01-03 06:00:00
8:20 AM,-9.4,-13.0,84,30.36,-9999.0,Variable,1.2,-,N/A,,Mist,0,2013-01-03 06:20:00
8:50 AM,-7.6,-11.2,84,30.36,1.0,SE,2.3,-,N/A,,Mist,130,2013-01-03 06:50:00
9:20 AM,-0.4,-4.0,85,30.36,1.2,Calm,Calm,-,N/A,,Mist,0,2013-01-03 07:20:00
9:50 AM,3.2,-2.2,78,30.36,1.2,Variable,1.2,-,N/A,,Mist,0,2013-01-03 07:50:00
10:20 AM,3.2,-2.2,78,30.36,1.2,NE,2.3,-,N/A,,Mist,50,2013-01-03 08:20:00
10:50 AM,5.0,-0.4,78,30.36,1.2,East,2.3,-,N/A,,Mist,80,2013-01-03 08:50:00
11:20 AM,6.8,1.4,79,30.33,1.2,Variable,2.3,-,N/A,,Mist,0,2013-01-03 09:20:00
11:50 AM,8.6,1.4,73,30.33,1.1,NNE,2.3,-,N/A,,Mist,30,2013-01-03 09:50:00
12:20 PM,8.6,3.2,79,30.33,1.1,NNE,2.3,-,N/A,,Mist,30,2013-01-03 10:20:00
12:50 PM,12.2,6.8,79,30.30,1.2,NNE,2.3,-,N/A,,Mist,30,2013-01-03 10:50:00
1:20 PM,14.0,8.6,79,30.30,1.2,Variable,1.2,-,N/A,,Mist,0,2013-01-03 11:20:00
1:50 PM,12.2,6.8,79,30.30,1.2,NE,2.3,-,N/A,,Mist,40,2013-01-03 11:50:00
2:00 PM,13,7,69,,1,NE,2.3,,,,Mist,40,2013-01-03 12:00:00
2:20 PM,12.2,5.0,73,30.30,1.2,Variable,2.3,-,N/A,,Mist,0,2013-01-03 12:20:00
2:50 PM,12.2,6.8,79,30.30,1.2,ENE,2.3,-,N/A,,Mist,70,2013-01-03 12:50:00
3:20 PM,12.2,5.0,73,30.30,1.2,East,2.3,-,N/A,,Mist,100,2013-01-03 13:20:00
3:50 PM,6.8,1.4,79,30.30,1.2,SE,1.2,-,N/A,,Mist,140,2013-01-03 13:50:00
4:20 PM,3.2,-0.4,85,30.30,1.2,Calm,Calm,-,N/A,,Mist,0,2013-01-03 14:20:00
4:50 PM,1.4,-2.2,85,30.30,1.2,Variable,2.3,-,N/A,,Mist,0,2013-01-03 14:50:00
5:20 PM,-0.4,-2.2,92,30.30,1.2,NE,1.2,-,N/A,,Mist,50,2013-01-03 15:20:00
5:50 PM,-0.4,-2.2,92,30.30,-9999.0,Variable,1.2,-,N/A,,Mist,0,2013-01-03 15:50:00
6:20 PM,-2.2,-5.8,85,30.30,2.5,Calm,Calm,-,N/A,,Mist,0,2013-01-03 16:20:00
6:50 PM,-2.2,-5.8,85,30.30,2.5,West,2.3,-,N/A,,Mist,260,2013-01-03 16:50:00
7:20 PM,-2.2,-5.8,85,30.30,2.5,Variable,1.2,-,N/A,,Mist,0,2013-01-03 17:20:00
7:50 PM,-4.0,-7.6,85,30.30,2.5,Variable,1.2,-,N/A,,Mist,0,2013-01-03 17:50:00
8:00 PM,-5,-6,95,,2,SSW,1.2,,,,Mist,210,2013-01-03 18:00:00
8:20 PM,-4.0,-5.8,92,30.30,2.2,WSW,3.5,-,N/A,,Mist,250,2013-01-03 18:20:00
8:50 PM,-4.0,-7.6,85,30.30,2.2,Variable,2.3,-,N/A,,Mist,0,2013-01-03 18:50:00
9:20 PM,-5.8,-9.4,84,30.27,2.2,Calm,Calm,-,N/A,,Mist,0,2013-01-03 19:20:00
9:50 PM,-7.6,-11.2,84,30.30,2.5,SSE,2.3,-,N/A,,Mist,150,2013-01-03 19:50:00
10:20 PM,-5.8,-7.6,92,30.30,2.5,Variable,2.3,-,N/A,,Mist,0,2013-01-03 20:20:00
10:50 PM,-9.4,-13.0,84,30.27,2.5,ESE,1.2,-,N/A,,Mist,110,2013-01-03 20:50:00
11:20 PM,-7.6,-11.2,84,30.27,2.5,Calm,Calm,-,N/A,,Mist,0,2013-01-03 21:20:00
11:50 PM,-9.4,-13.0,84,30.24,2.5,Variable,1.2,-,N/A,,Mist,0,2013-01-03 21:50:00